Weather Roundup
Issued by NWS Chicago, IL

Home | Current Version | Previous Version | Graphics & Text | Print | Product List | Glossary On
Versions: 1 2 3 4 5 6 7 8 9 10 11 12 13 14 15 16 17 18 19 20 21 22 23 24 25 26 27 28 29 30 31 32 33 34 35 36 37 38 39 40 41 42 43 44 45 46 47 48 49 50
000
NZUS59 KLOT 292103
HRRLOT

CHICAGO AREA WEATHER ROUNDUP
NATIONAL WEATHER SERVICE CHICAGO/ROMEOVILLE IL
400 PM CDT MON AUG 29 2016

NOTE: "FAIR" INDICATES FEW OR NO CLOUDS BELOW 12,000 FEET WITH NO
SIGNIFICANT WEATHER AND/OR OBSTRUCTIONS TO VISIBILITY.

* THESE STATIONS ARE NOT UNDER NWS QUALITY CONTROL. THEY ALSO MAY NOT
  REPORT WEATHER SUCH AS PRECIPITATION OR FOG.

ILZ005-006-012>014-019>023-292200-
NORTHEAST ILLINOIS

CITY           SKY/WX    TMP DP  RH WIND       PRES   REMARKS
OHARE          CLOUDY    75  72  90 N6        30.19F THUNDER
MIDWAY         CLOUDY    83  70  64 NE9       30.17F THUNDER HX  87
AURORA         PTSUNNY   80  72  76 N5        30.18F HX  84
LANSING*       MOSUNNY   86  74  66 CALM      30.17F HX  94
JOLIET*        PTSUNNY   85  74  70 SE5       30.17S HX  93
WAUKEGAN       CLOUDY    81  71  71 NE7       30.19F HX  85
DUPAGE AIRPORT TSTM      73  68  84 NE8       30.19S
WHEELING       CLOUDY    77  72  84 E6        30.21F
KANKAKEE*      SUNNY     87  69  55 SE3       30.17F HX  91
MORRIS*        MOSUNNY   83  73  71 SE3       30.16S HX  90
LEWIS AIRPORT* CLOUDY    82  76  80 N3        30.18S HX  90
$$

WIZ051-052-058>065-066-070>072-292200-
SOUTHEAST WISCONSIN

CITY           SKY/WX    TMP DP  RH WIND       PRES   REMARKS
MILWAUKEE      CLOUDY    79  68  69 E8        30.20F HX  81
KENOSHA*       CLOUDY    81  70  69 E8        30.20F HX  84
RACINE*        CLOUDY    78  70  76 E6        30.22F HX  80
WAUKESHA       PTSUNNY   79  66  65 E8        30.21  HX  81
$$

INZ001>003-010>013-019-020-292200-
NORTHWEST INDIANA

CITY           SKY/WX    TMP DP  RH WIND       PRES   REMARKS
GARY*          PTSUNNY   82  73  74 NE5       30.18F HX  88
MICHIGAN CITY* NOT AVBL
RENSSELAER*    NOT AVBL
VALPARAISO     SUNNY     87  70  56 VRB6      30.18F HX  92
$$

LMZ740>746-292200-
SOUTHERN LAKE MICHIGAN

STATION/POSITION TIME  SKY/WX   TEMP WIND        PRES    VSBY
                                AIR  DIR/SP/G
                 (UTC)          (F)  (DEG/KT/KT) (MB)    (MI)
HARRISON CRIB    2000            76   40/ 11/ 12   N/A
BURNHAM HARBOR   2100            76  360/  5/  8   N/A
CALUMET HARBOR   2000            79   30/  9/ 12 1021.9F
BURNS HARBOR     2000            79   50/  4/ 10 1022.4F
MICHIGAN CITY    2000            78  350/ 10/ 10   N/A
$$

ABBREVIATIONS USED IN REMARKS
   TC - TEMPERATURE IN CELSIUS
  WCI - WIND CHILL INDEX
   HX - HEAT INDEX
  VSB - VISIBILITY
$$




USA.gov is the U.S. government's official web portal to all federal, state and local government web resources and services.